Home   Weather   Hermiston   Past weeks
Flag for USA

Past Weather in Hermiston, Oregon, USA — Yesterday and Last 2 Weeks

Now
69 °F

Passing clouds.


Feels Like: 69 °F
Forecast: 86 / 65 °F
Wind: 13 mph from Southwest

Location: Hermiston Municipal Airport

Current Time: Jul 17, 2019 at 3:39:31 am

Latest Report: Jul 17, 2019 at 2:53 am


Visibility: 10 mi

Pressure: 29.85 "Hg

Humidity: 55%

Dew Point: 52 °F

Location of HermistonLocation

Past Weather in Hermiston — Graph

°F

Hermiston Temperature Yesterday

Maximum temperature yesterday: 88 °F (at 4:53 pm)
Minimum temperature yesterday: 61 °F (at 4:53 am)
Average temperature yesterday: 76 °F

High & Low Weather Summary for the Past Weeks

 TemperatureHumidityPressure
High91 °F (Jul 5, 4:53 pm)75% (Jul 16, 4:53 am)30.06 "Hg (Jul 16, 4:53 am)
Low55 °F (Jul 9, 3:53 am)14% (Jul 14, 3:53 pm)29.80 "Hg (Jul 13, 6:53 pm)
Average75 °F42%29.92 "Hg
* Reported Jul 2 1:53 am — Jul 17 1:53 am, Hermiston. Weather by CustomWeather, © 2019

Note: Actual official high and low records may vary slightly from our data, if they occured in-between our weather recording intervals... More about our weather records

Advertising

Hermiston Weather History for the Previous 24 Hours

Scroll right to see more
 ConditionsComfort  
Time TempWeatherWind HumidityBarometerVisibility
1:53 am
Wed, Jul 17
70 °FPassing clouds.14 mph51%29.84 "Hg10 mi
12:53 am71 °FClear.14 mph47%29.84 "Hg10 mi
11:53 pm
Tue, Jul 16
71 °FClear.14 mph45%29.84 "Hg10 mi
10:53 pm73 °FPassing clouds.15 mph41%29.83 "Hg10 mi
9:53 pm76 °FClear.15 mph36%29.83 "Hg10 mi
8:53 pm78 °FClear.13 mph31%29.82 "Hg10 mi
7:53 pm81 °FSunny.9 mph29%29.81 "Hg10 mi
6:53 pm85 °FSunny.9 mph26%29.81 "Hg10 mi
5:53 pm87 °FSunny.14 mph22%29.82 "Hg10 mi
4:53 pm88 °FSunny.15 mph22%29.82 "Hg10 mi
3:53 pm87 °FSunny.12 mph25%29.84 "Hg10 mi
2:53 pm86 °FSunny.9 mph29%29.86 "Hg10 mi
1:53 pm85 °FSunny.15 mph32%29.88 "Hg10 mi
12:53 pm83 °FSunny.15 mph36%29.90 "Hg10 mi
11:53 am80 °FSunny.12 mph39%29.93 "Hg10 mi
10:53 am78 °FSunny.10 mph43%29.94 "Hg10 mi
9:53 am76 °FSunny.8 mph48%29.95 "Hg10 mi
8:53 am71 °FSunny.6 mph57%29.96 "Hg10 mi
7:53 am70 °FSunny.8 mph57%29.96 "Hg10 mi
6:53 am67 °FSunny.6 mph66%29.96 "Hg10 mi
5:53 am63 °FSunny.6 mph73%29.95 "Hg10 mi
4:53 am61 °FClear.3 mph75%29.95 "Hg10 mi
3:53 am66 °FClear.8 mph65%29.94 "Hg10 mi
Weather by CustomWeather, © 2019

See weather overview